• Processing (Info)

  • MPEC 2005-U29 : 2005 UN

    The following Minor Planet Electronic Circular may be linked-to from your own Web pages, but must not otherwise be redistributed electronically.

    A form allowing access to any MPEC is at the bottom of this page.


    Read MPEC 2005-U28 Read MPEC 2005-U30


    M.P.E.C. 2005-U29                                Issued 2005 Oct. 24, 18:06 UT
    
         The Minor Planet Electronic Circulars contain information on unusual
             minor planets and routine data on comets.  They are published
       on behalf of Commission 20 of the International Astronomical Union by the
              Minor Planet Center, Smithsonian Astrophysical Observatory,
                              Cambridge, MA 02138, U.S.A.
    
                      Supported in part by the Brinson Foundation
                      Supported in part by the TABASGO Foundation
                 Prepared using the Tamkin Foundation Computer Network
    
                                  MPC@CFA.HARVARD.EDU
              URL http://cfa-www.harvard.edu/iau/mpc.html  ISSN 1523-6714
    
                                        2005 UN
    
    Observations:
         K05U00N* C2005 10 23.27746 01 07 31.33 +19 23 27.1          18.4 V EU029703
         K05U00N  C2005 10 23.28603 01 07 34.89 +19 27 25.0          18.9 V EU029703
         K05U00N  C2005 10 23.29456 01 07 38.38 +19 31 21.5          18.7 V EU029703
         K05U00N  C2005 10 23.30318 01 07 42.09 +19 35 19.2          18.4 V EU029703
         K05U00N  C2005 10 23.38856 01 08 19.17 +20 14 13.8          18.9 V EU029703
         K05U00N  C2005 10 23.38892 01 08 19.39 +20 14 23.7          18.9 V EU029703
         K05U00N  C2005 10 23.38926 01 08 19.57 +20 14 33.7          18.9 V EU029703
         K05U00N  C2005 10 23.38961 01 08 19.68 +20 14 43.8          18.6 V EU029703
         K05U00N  C2005 10 23.43396 01 08 40.81 +20 34 37.3          19.0 V EU029703
         K05U00N  C2005 10 23.43494 01 08 41.28 +20 35 03.4          18.6 V EU029703
         K05U00N  C2005 10 23.43591 01 08 41.71 +20 35 29.5          18.5 V EU029703
         K05U00N  C2005 10 23.43686 01 08 42.21 +20 35 54.9          18.4 V EU029703
         K05U00N  C2005 10 23.84820 01 13 08.31 +23 39 27.4          18.8 R EU029143
         K05U00N  C2005 10 23.85138 01 13 09.72 +23 40 53.3          18.4 R EU029143
         K05U00N  C2005 10 23.85167 01 13 09.42 +23 40 47.0          17.4 V EU029198
         K05U00N  C2005 10 23.85320 01 13 10.14 +23 41 27.7          17.6 V EU029198
         K05U00N  C2005 10 23.85476 01 13 11.22 +23 42 23.5          17.9 R EU029143
         K05U00N  C2005 10 23.85525 01 13 11.11 +23 42 22.7          17.6 V EU029198
         K05U00N  C2005 10 23.85960 01 13 13.15 +23 44 18.8          17.6 V EU029198
         K05U00N  C2005 10 23.86203 01 13 14.30 +23 45 23.9          17.8 V EU029198
         K05U00N  C2005 10 23.86395 01 13 15.19 +23 46 15.2          17.7 V EU029198
         K05U00N 5C2005 10 24.20434 01 16 33.37 +26 13 40.2          17.8 R EU029673
         K05U00N 5C2005 10 24.21171 01 16 36.62 +26 16 50.2                 EU029673
         K05U00N 5C2005 10 24.21692 01 16 38.85 +26 19 02.2                 EU029673
         K05U00N 5C2005 10 24.22159 01 16 40.92 +26 21 02.1                 EU029673
         K05U00N  C2005 10 24.24620 01 16 48.85 +26 31 45.7          18.9 R EU029854
         K05U00N  C2005 10 24.24819 01 16 49.76 +26 32 36.5          19.1 R EU029854
         K05U00N  C2005 10 24.25018 01 16 50.58 +26 33 26.8          18.9 R EU029854
         K05U00N  C2005 10 24.32910 01 17 19.39 +27 05 07.5          18.6 R EU029H36
    
    Observer details:
    143 Gnosca.  Observer S. Sposetti.  0.40-m f/4 reflector + CCD.
    198 Wildberg.  Observer R. Apitzsch.  0.35-m f/4.2 reflector + CCD.
    673 Table Mountain Observatory, Wrightwood.  Observer J. Young.  0.6-m f/16
        Cassegrain + CCD.
    703 Catalina Sky Survey.  Observer E. J. Christensen.  Measurers E. C. Beshore,
        E. J. Christensen, G. J. Garradd, A. D. Grauer, R. E. Hill, R. A. Kowalski,
        S. M. Larson, R. H. McNaught.  0.68-m Schmidt + CCD.
    854 Sabino Canyon Observatory, Tucson.  Observer J. E. McGaha.  0.36-m f/10.0
        Schmidt-Cassegrain + CCD.
    H36 Sandlot Observatory, Scranton.  Observer G. Hug.  0.30-m
        Schmidt-Cassegrain + CCD.
    
    Orbital elements:
    2005 UN
    Epoch 2005 Aug. 18.0 TT = JDT 2453600.5                 MPC
    M 323.56327              (2000.0)            P               Q
    n   0.59234519     Peri.  356.59082     +0.90930310     -0.41170790
    a   1.4041693      Node    27.96782     +0.38478421     +0.77646256
    e   0.2770835      Incl.    7.41637     +0.15845814     +0.47707703
    P   1.66           H   25.9           G   0.15           U   6
    Residuals in seconds of arc
    051023 703  0.1+  0.3+    051023 703  0.4-  0.4+    051023 198  0.3+  1.8+
    051023 703  0.1+  0.0     051023 703  0.0   0.4+    051024 673  0.1-  0.5-
    051023 703  0.9-  0.0     051023 143  1.3+  1.8-    051024 673  0.2-  0.6+
    051023 703  0.6+  0.8-    051023 143  0.4+  0.7-    051024 673  1.0-  0.8-
    051023 703  0.8-  0.8-    051023 198  0.4-  0.0     051024 673  0.6-  0.2-
    051023 703  0.0   0.6-    051023 198  0.4-  0.0     051024 854  0.6-  0.1-
    051023 703  0.3+  0.2+    051023 143  0.4-  0.5-    051024 854  0.4+  0.5+
    051023 703  0.4-  0.8+    051023 198  0.2-  0.5+    051024 854  0.1+  0.6+
    051023 703  0.5+  0.4+    051023 198  0.0   0.9+    051024 H36  0.3+  0.1+
    051023 703  0.3+  0.3+    051023 198  0.3+  1.5+
    
    Ephemeris:
    2005 UN                  a,e,i = 1.40, 0.28, 7                   q = 1.0151
    Date    TT    R. A. (2000) Decl.     Delta      r     Elong.  Phase     V
    2005 10 17    00 11.88   -28 47.7    0.0249   1.015   137.9    41.2    19.5
    2005 10 19    00 28.61   -15 31.7    0.0220   1.015   149.7    29.7    18.9
    2005 10 21    00 46.38   +00 36.8    0.0207   1.015   162.8    16.8    18.4
    2005 10 23    01 04.92   +17 14.4    0.0214   1.016   167.6    12.2    18.3
    2005 10 25    01 23.95   +31 31.7    0.0238   1.017   159.0    20.5    18.8
    2005 10 27    01 43.09   +42 21.1    0.0276   1.018   150.0    29.3    19.4
    2005 10 29    02 01.96   +50 05.7    0.0322   1.019   143.2    35.7    19.9
    2005 10 31    02 20.17   +55 33.5    0.0373   1.021   138.5    40.1    20.4
    2005 11 02    02 37.42   +59 25.7    0.0428   1.023   135.2    43.1    20.8
    2005 11 04    02 53.44   +62 11.6    0.0486   1.026   133.0    45.0    21.1
    2005 11 06    03 08.11   +64 10.9    0.0544   1.028   131.6    46.2    21.4
    2005 11 08    03 21.34   +65 36.8    0.0604   1.031   130.7    46.8    21.6
    2005 11 10    03 33.15   +66 38.3    0.0665   1.034   130.2    47.0    21.9
    2005 11 12    03 43.57   +67 21.6    0.0727   1.038   130.0    47.0    22.1
    2005 11 14    03 52.68   +67 50.9    0.0789   1.042   130.0    46.7    22.2
    2005 11 16    04 00.57   +68 09.3    0.0851   1.046   130.2    46.2    22.4
    
    Kyle E. Smalley              (C) Copyright 2005 MPC           M.P.E.C. 2005-U29
    

    Read MPEC 2005-U28 Read MPEC 2005-U30


    MPEC number:

    Enter an MPEC number in one of the following forms:

    • 1997-B01 (the full form)
    • J97B01 (the packed version of the full form)
    • B01 (the abbreviated form)